DW1389 Weather Reports


Display with metric or nautical units.
time (UTC)temp
F
wind
direction
speed
MPH
gust
MPH
rain 1hr
in
rain 24hr
in
rain mn
in
humidity
%
barometer
mb
20260504031201 67 70 2.0 4.0 0.00 0.00 0.00 60 1016.8
20260504030701 67 58 2.0 4.0 0.00 0.00 0.00 60 1016.7
20260504030201 67 220 2.0 4.0 0.00 0.00 0.00 60 1016.8
20260504025701 67 223 2.0 4.0 0.00 0.00 0.00 60 1016.7
20260504025201 67 42 2.0 4.0 0.00 0.00 0.00 60 1016.7
20260504024701 67 70 2.0 8.0 0.00 0.00 0.00 60 1016.8
20260504024151 67 227 2.0 8.0 0.00 0.00 0.00 60 1016.8
20260504023910 67 201 2.0 3.0 0.00 0.00 0.00 60 1016.7
20260504023145 67 206 2.0 5.0 0.00 0.00 0.00 60 1016.6
20260504022645 67 215 2.0 5.0 0.00 0.00 0.00 61 1016.7
20260504022146 67 221 2.0 4.0 0.00 0.00 0.00 63 1016.7
20260504021646 67 220 2.0 3.0 0.00 0.00 0.00 62 1016.7
20260504021145 68 34 2.0 4.0 0.00 0.00 0.00 61 1016.6
20260504020646 68 238 2.0 4.0 0.00 0.00 0.00 60 1016.5
20260504020146 68 190 2.0 3.0 0.00 0.00 0.00 59 1016.5
20260504015646 69 350 1.0 3.0 0.00 0.00 0.00 58 1016.3
20260504015146 69 2 1.0 3.0 0.00 0.00 0.00 57 1016.2
20260504014646 69 245 1.0 2.0 0.00 0.00 0.00 57 1016.2
20260504014145 69 219 0.0 2.0 0.00 0.00 0.00 57 1016.1
20260504013646 70 3 1.0 2.0 0.00 0.00 0.00 55 1016.2
20260504013146 70 0 0.0 2.0 0.00 0.00 0.00 54 1016.1
20260504012646 71 343 1.0 2.0 0.00 0.00 0.00 54 1016.1
20260504012130 72 219 1.0 2.0 0.00 0.00 0.00 53 1016.2
20260504011631 72 111 1.0 3.0 0.00 0.00 0.00 51 1016.2
20260504011131 73 258 1.0 3.0 0.00 0.00 0.00 49 1016.2
20260504010629 73 250 1.0 3.0 0.00 0.00 0.00 49 1016.1
20260504010129 73 276 1.0 4.0 0.00 0.00 0.00 48 1016.1
20260504005629 74 171 1.0 4.0 0.00 0.00 0.00 48 1016.0
20260504005128 74 217 1.0 4.0 0.00 0.00 0.00 47 1016.0
20260504004630 74 309 1.0 4.0 0.00 0.00 0.00 47 1016.0
20260504004129 74 130 1.0 4.0 0.00 0.00 0.00 47 1016.0
20260504003628 75 167 2.0 5.0 0.00 0.00 0.00 47 1016.1
20260504003127 75 171 2.0 5.0 0.00 0.00 0.00 46 1016.1
20260504002626 75 246 2.0 4.0 0.00 0.00 0.00 45 1016.1
20260504002122 75 241 2.0 6.0 0.00 0.00 0.00 45 1016.2
20260504001909 75 214 2.0 6.0 0.00 0.00 0.00 45 1016.2
20260504001123 76 274 2.0 6.0 0.00 0.00 0.00 44 1016.3
20260504000908 76 124 2.0 6.0 0.00 0.00 0.00 43 1016.4
20260504000123 76 280 2.0 8.0 0.00 0.00 0.00 43 1016.5
20260503235623 76 124 2.0 8.0 0.00 0.00 0.00 42 1016.5
20260503235124 77 293 2.0 5.0 0.00 0.00 0.00 42 1016.5
20260503234623 77 91 2.0 5.0 0.00 0.00 0.00 43 1016.5
20260503234409 77 191 2.0 5.0 0.00 0.00 0.00 44 1016.6
20260503233624 76 333 2.0 5.0 0.00 0.00 0.00 43 1016.7
20260503233125 76 290 2.0 5.0 0.00 0.00 0.00 43 1016.7
20260503232906 77 231 2.0 5.0 0.00 0.00 0.00 43 1016.6
20260503232122 77 303 2.0 6.0 0.00 0.00 0.00 42 1016.7
20260503231618 77 152 2.0 6.0 0.00 0.00 0.00 42 1016.6
20260503231118 78 20 3.0 7.0 0.00 0.00 0.00 42 1016.5
20260503230617 78 228 3.0 8.0 0.00 0.00 0.00 42 1016.4
20260503230115 79 279 2.0 8.0 0.00 0.00 0.00 40 1016.6
20260503225616 79 106 2.0 7.0 0.00 0.00 0.00 41 1016.7
20260503225115 79 214 3.0 7.0 0.00 0.00 0.00 41 1016.6
20260503224615 79 202 4.0 9.0 0.00 0.00 0.00 42 1016.7
20260503224403 79 201 3.0 9.0 0.00 0.00 0.00 42 1016.9
20260503223616 80 283 3.0 8.0 0.00 0.00 0.00 41 1016.8
20260503223116 80 173 3.0 8.0 0.00 0.00 0.00 42 1016.9
20260503222904 80 253 3.0 7.0 0.00 0.00 0.00 42 1016.9
20260503222117 80 272 2.0 7.0 0.00 0.00 0.00 42 1017.0
20260503221617 80 297 2.0 7.0 0.00 0.00 0.00 42 1017.1
20260503221116 80 288 3.0 8.0 0.00 0.00 0.00 41 1017.1
20260503220901 80 211 3.0 8.0 0.00 0.00 0.00 42 1017.2
20260503220116 80 197 3.0 7.0 0.00 0.00 0.00 42 1017.2
20260503215905 80 302 3.0 7.0 0.00 0.00 0.00 41 1017.3
20260503215116 80 181 2.0 7.0 0.00 0.00 0.00 41 1017.3
20260503214616 79 282 2.0 7.0 0.00 0.00 0.00 42 1017.4
20260503214116 79 270 3.0 10.0 0.00 0.00 0.00 42 1017.6
20260503213618 78 182 3.0 10.0 0.00 0.00 0.00 42 1017.7
20260503213358 78 250 3.0 8.0 0.00 0.00 0.00 43 1017.8
20260503212617 78 239 3.0 8.0 0.00 0.00 0.00 43 1017.8
20260503212116 78 29 2.0 6.0 0.00 0.00 0.00 41 1017.9
20260503211617 79 155 2.0 9.0 0.00 0.00 0.00 40 1017.9
20260503211116 79 286 2.0 9.0 0.00 0.00 0.00 40 1018.1
20260503210616 79 193 3.0 8.0 0.00 0.00 0.00 41 1018.3
20260503210117 80 140 3.0 8.0 0.00 0.00 0.00 40 1018.3
20260503205618 79 254 3.0 8.0 0.00 0.00 0.00 41 1018.2
20260503205400 79 241 3.0 7.0 0.00 0.00 0.00 40 1018.4
20260503204614 79 57 3.0 7.0 0.00 0.00 0.00 42 1018.4
20260503204357 79 72 2.0 7.0 0.00 0.00 0.00 42 1018.6
20260503203924 79 264 3.0 9.0 0.00 0.00 0.00 42 1018.7
20260503203920 79 53 2.0 7.0 0.00 0.00 0.00 44 1018.5
20260503202609 79 114 3.0 9.0 0.00 0.00 0.00 44 1019.0
20260503202109 80 7 3.0 7.0 0.00 0.00 0.00 44 1019.0
20260503201606 79 289 3.0 8.0 0.00 0.00 0.00 43 1019.0
20260503201102 79 267 3.0 8.0 0.00 0.00 0.00 44 1019.1
20260503200602 79 356 3.0 7.0 0.00 0.00 0.00 43 1019.2
20260503195841 79 135 4.0 9.0 0.00 0.00 0.00 44 1019.4
20260503195344 79 248 3.0 8.0 0.00 0.00 0.00 44 1019.4
20260503194602 79 197 2.0 7.0 0.00 0.00 0.00 43 1019.5
20260503194103 79 141 3.0 8.0 0.00 0.00 0.00 42 1019.5
20260503193600 79 164 3.0 8.0 0.00 0.00 0.00 42 1019.5
20260503193339 79 203 2.0 7.0 0.00 0.00 0.00 44 1019.8
20260503192556 79 311 2.0 7.0 0.00 0.00 0.00 42 1019.8
20260503192055 78 143 3.0 8.0 0.00 0.00 0.00 42 1019.8
20260503191553 78 87 3.0 8.0 0.00 0.00 0.00 44 1020.0
20260503191055 78 125 3.0 9.0 0.00 0.00 0.00 41 1019.9
20260503190555 78 122 3.0 9.0 0.00 0.00 0.00 39 1020.0
20260503190055 78 166 3.0 8.0 0.00 0.00 0.00 46 1020.2
20260503185837 78 175 3.0 8.0 0.00 0.00 0.00 45 1020.3
20260503185055 78 317 3.0 7.0 0.00 0.00 0.00 45 1020.3
20260503184555 78 57 3.0 7.0 0.00 0.00 0.00 44 1020.4
20260503184055 78 262 3.0 8.0 0.00 0.00 0.00 44 1020.5
20260503183555 78 351 3.0 8.0 0.00 0.00 0.00 44 1020.6
20260503183052 78 48 3.0 8.0 0.00 0.00 0.00 45 1020.6
20260503182552 78 117 2.0 10.0 0.00 0.00 0.00 45 1020.7
20260503182051 78 220 3.0 10.0 0.00 0.00 0.00 46 1020.9
20260503181549 78 238 3.0 8.0 0.00 0.00 0.00 43 1020.9
20260503181049 78 295 2.0 6.0 0.00 0.00 0.00 44 1021.1
20260503180549 77 307 3.0 9.0 0.00 0.00 0.00 45 1021.2
20260503180047 77 153 3.0 9.0 0.00 0.00 0.00 48 1021.3
20260503175545 78 216 3.0 9.0 0.00 0.00 0.00 46 1021.3
20260503175045 78 348 3.0 8.0 0.00 0.00 0.00 46 1021.3
20260503174546 78 289 3.0 8.0 0.00 0.00 0.00 45 1021.4
20260503174047 78 221 3.0 8.0 0.00 0.00 0.00 45 1021.5
20260503173547 78 236 2.0 7.0 0.00 0.00 0.00 46 1021.5
20260503173047 78 24 2.0 7.0 0.00 0.00 0.00 44 1021.5
20260503172828 78 177 3.0 6.0 0.00 0.00 0.00 46 1021.7
20260503172047 77 321 3.0 6.0 0.00 0.00 0.00 46 1021.7
20260503171546 77 238 2.0 6.0 0.00 0.00 0.00 47 1021.8
20260503171045 77 54 3.0 7.0 0.00 0.00 0.00 44 1021.8
20260503170546 77 281 3.0 7.0 0.00 0.00 0.00 45 1021.9
20260503170327 77 274 2.0 6.0 0.00 0.00 0.00 45 1022.0
20260503150529 71 311 3.0 8.0 0.00 0.00 0.00 59 1022.3
20260503131015 60 240 4.0 10.0 0.00 0.00 0.00 75 1021.9
20260503130514 60 261 3.0 7.0 0.00 0.00 0.00 76 1021.8
20260503110723 54 238 1.0 2.0 0.00 0.00 0.00 87 1020.9
20260503090502 57 261 2.0 6.0 0.00 0.00 0.00 81 1020.5
20260503090247 57 220 3.0 6.0 0.00 0.00 0.00 80 1020.5
20260503081500 56 239 2.0 5.0 0.00 0.00 0.00 80 1020.5
20260503081003 56 260 2.0 5.0 0.00 0.00 0.00 82 1020.6
20260503080501 55 228 1.0 5.0 0.00 0.00 0.00 84 1020.5
20260503072501 57 240 2.0 3.0 0.00 0.00 0.00 80 1020.7
20260503072001 57 222 1.0 4.0 0.00 0.00 0.00 80 1020.7
20260503071725 57 234 1.0 4.0 0.00 0.00 0.00 79 1020.9
20260503071001 58 0 2.0 5.0 0.00 0.00 0.00 78 1020.9
20260503070731 58 237 3.0 5.0 0.00 0.00 0.00 79 1020.9
20260503070226 57 240 3.0 5.0 0.00 0.00 0.00 80 1020.9
20260503054944 58 250 4.0 6.0 0.00 0.00 0.00 80 1021.0
20260503054721 58 229 4.0 6.0 0.00 0.00 0.00 80 1021.0
20260503053937 58 235 4.0 6.0 0.00 0.00 0.00 79 1021.0
20260503053805 59 235 3.0 6.0 0.00 0.00 0.00 78 1021.1
20260503053504 59 242 3.0 6.0 0.00 0.00 0.00 78 1021.1
20260503052437 59 250 4.0 6.0 0.00 0.00 0.00 78 1021.1
20260503051938 58 232 4.0 7.0 0.00 0.00 0.00 81 1021.1
20260503051438 58 230 3.0 7.0 0.00 0.00 0.00 82 1021.1
20260503050937 58 254 2.0 5.0 0.00 0.00 0.00 83 1021.1
20260503050655 58 232 3.0 4.0 0.00 0.00 0.00 83 1021.1
20260503045930 59 229 2.0 4.0 0.00 0.00 0.00 83 1021.0
20260503045431 59 223 2.0 4.0 0.00 0.00 0.00 82 1021.0
20260503045156 59 35 2.0 4.0 0.00 0.00 0.00 81 1021.0
20260503044431 59 245 3.0 5.0 0.00 0.00 0.00 80 1021.0
20260503043932 59 247 3.0 5.0 0.00 0.00 0.00 78 1021.0
20260503043658 59 245 4.0 5.0 0.00 0.00 0.00 78 1021.0
20260503042930 59 242 4.0 5.0 0.00 0.00 0.00 79 1020.9
20260503042653 59 238 4.0 4.0 0.00 0.00 0.00 79 1020.9
20260503041932 59 248 4.0 5.0 0.00 0.00 0.00 78 1020.9
20260503041430 60 248 4.0 5.0 0.00 0.00 0.00 78 1020.8
20260503040930 60 242 4.0 5.0 0.00 0.00 0.00 77 1020.9
20260503040429 60 246 3.0 5.0 0.00 0.00 0.00 76 1020.9
20260503035929 60 242 3.0 5.0 0.00 0.00 0.00 76 1020.9
20260503035429 61 309 3.0 5.0 0.00 0.00 0.00 75 1021.0
20260503034930 61 244 4.0 5.0 0.00 0.00 0.00 74 1020.9
20260503034430 61 244 3.0 4.0 0.00 0.00 0.00 74 1020.8
20260503033930 61 232 3.0 4.0 0.00 0.00 0.00 74 1020.7
20260503033430 61 241 3.0 5.0 0.00 0.00 0.00 75 1020.7
20260503032930 61 260 3.0 5.0 0.00 0.00 0.00 75 1020.7
20260503032700 61 322 3.0 5.0 0.00 0.00 0.00 76 1020.7
20260503031930 61 230 3.0 5.0 0.00 0.00 0.00 74 1020.7